Location: Burla
(50.9568°N, 10.4983°E)
Time: 18:32:06
(UTC+00:00)

Thor Agena Rocket - Pass Details

Date: 18 January 2026
Orbit: 755 x 801 km, 99.1° (Epoch: 18 February)

Event Time Altitude Azimuth Distance (km) Brightness Sun altitude
Rises 05:38:15 0° 18° (NNE) 3,247 6.8 -14.3°
Reaches altitude 10° 05:40:36 10° 22° (NNE) 2,322 6.1 -13.9°
Maximum altitude 05:45:39 61° 103° (ESE) 884 4.1 -13.2°
Drops below altitude 10° 05:50:45 10° 183° (S) 2,334 6.2 -12.4°
Sets 05:53:06 0° 187° (S) 3,265 6.9 -12.1°
